Regional Weather Roundup
Issued by NWS Green Bay, WI

Home | Current Version | Previous Version | Text Only | Print | Product List | Glossary On
Versions: 1 2 3 4 5 6 7 8 9 10 11 12 13 14 15 16 17 18 19 20 21 22 23 24 25 26 27 28 29 30 31 32 33 34 35 36 37 38 39 40 41 42 43 44 45 46 47 48 49 50
000
ASUS43 KGRB 021459
RWRGRB

NORTH-CENTRAL AND NORTHEAST WISCONSIN REGIONAL WEATHER ROUNDUP
NATIONAL WEATHER SERVICE GREEN BAY WI
1000 AM CDT THU OCT 02 2014

WIZ005-009-010>012-018-019-021600-
NORTH CENTRAL WISCONSIN

CITY           SKY/WX    TMP DP  RH WIND       PRES   REMARKS
IRONWOOD       NOT AVBL
MANITOWISH WTR NOT AVBL
ARBOR VITAE    NOT AVBL
EAGLE RIVER    NOT AVBL
LAND O LAKES   NOT AVBL
RHINELANDER    CLOUDY    52  52 100 E3        29.87F FOG
PHILLIPS       CLOUDY    54  53  97 CALM      29.85S FOG
ANTIGO         NOT AVBL
TOMAHAWK       NOT AVBL
MERRILL        NOT AVBL
$$

WIZ013-073-021600-
NORTHEAST WISCONSIN

CITY           SKY/WX    TMP DP  RH WIND       PRES   REMARKS
IRON MOUNTAIN  CLOUDY    55  54  96 CALM      29.86F FOG
MARINETTE      NOT AVBL
$$

WIZ017-030-035>037-045-021600-
CENTRAL WISCONSIN

CITY           SKY/WX    TMP DP  RH WIND       PRES   REMARKS
MEDFORD        NOT AVBL
WAUSAU           N/A     57  54  89 E5        29.85S FOG
MOSINEE        PTSUNNY   57  57 100 CALM      29.87S
MARSHFIELD     CLOUDY    60  56  86 CALM      29.85S FOG
WISC RAPIDS    CLOUDY    60  57  89 E5        29.86F
STEVENS POINT  NOT AVBL
WAUPACA        NOT AVBL
SHAWANO        CLOUDY    60  57  89 CALM      29.86S FOG
CLINTONVILLE   CLOUDY    59  55  88 CALM      29.86R FOG
$$

WIZ038-039-048-051-021600-
FOX VALLEY

CITY           SKY/WX    TMP DP  RH WIND       PRES   REMARKS
NWS GREEN BAY  PTSUNNY   62  59  90 SE3       29.86S
APPLETON       PTSUNNY   63  57  82 VRB3      29.86S
OSHKOSH        CLOUDY    62  59  90 CALM      29.84F FOG
FOND DU LAC    CLOUDY    62  58  86 S6        29.85F
$$

WIZ022-050-052-021600-
EAST CENTRAL WISCONSIN

CITY           SKY/WX    TMP DP  RH WIND       PRES   REMARKS
STURGEON BAY   NOT AVBL
MANITOWOC      NOT AVBL
SHEBOYGAN      LGT RAIN  60  58  92 S6        29.86S FOG
$$

LMZ563-521-522-541>543-021600-
LAKESHORE

STATION/POSITION TIME  TEMP    WIND        PRES    VSBY  WAVE
                       AIR SEA DIR/SP/G                  HT/PER
                 (UTC) (F)     (DEG/KT/KT) (MB)    (MI)  (FT/S)
SHEBOYGAN LKSHOR 1400   58 56  160/  7/  8 1011.4F
KEWAUNEE LKSHORE 1400   56     160/  5/  6 1010.6F
NORTHPORT PIER   1400   57     150/  7/  9 1011.9F
N MID LAKE BUOY  1400   57 58  140/ 12/ 14 1012.2F         2/ 5
S GREEN BAY BUOY 1400   59     VRB  2/  4  1012.1F
CHAMBERS ISLAND  1400   57     130/  3/  6 1011.9S
MENOMINEE LKSHOR 1400   58     150/  5/  6 1011.7F
$$


USA.gov is the U.S. government's official web portal to all federal, state and local government web resources and services.